Baton Rouge, LA

6:50 PM CDT on April 25, 2017 (GMT -0500)
Baton Rouge Metro-Ryan

Weather History for KBTR - January, 2013

Change the Weather History Date:

Wednesday, January 9, 2013

  Actual Average Record
Temperature  
Mean Temperature 63 °F 52 °F  
Max Temperature 66 °F 62 °F 83 °F (1937)
Min Temperature 60 °F 41 °F 17 °F (1979)
Degree Days  
Heating Degree Days 2 14  
Month to date heating degree days 126  
Since 1 July heating degree days 742  
Cooling Degree Days 0 0  
Month to date cooling degree days 3  
Year to date cooling degree days 3  
Growing Degree Days 13 (Base 50)    
Moisture  
Dew Point 63 °F    
Average Humidity 98    
Maximum Humidity 100    
Minimum Humidity 94    
Precipitation  
Precipitation 2.38 in 0.18 in 4.93 in (1900)
Month to date precipitation 1.59  
Year to date precipitation 1.59  
Snow  
Snow 0.00 in - - ()
Month to date snowfall  
Since 1 July snowfall  
Snow Depth -    
Sea Level Pressure  
Sea Level Pressure 30.13 in    
Wind  
Wind Speed 10 mph (ESE)    
Max Wind Speed 16 mph    
Max Gust Speed 23 mph    
Visibility 4 miles    
Events Rain    
T = Trace of Precipitation, MM = Missing Value Source: NWS Daily Summary

Daily Weather History Graph

Daily Weather History Graph

Search for Another Location

Airport or City:

Trip Planner

Search our weather history database for the weather conditions in past years. The results will help you decide how hot, cold, wet, or windy it might be!

Date:

Astronomy

Jan. 09, 2013 Rise Set
Actual Time 7:02 AM CST 5:21 PM CST
Civil Twilight 6:36 AM CST 5:47 PM CST
Nautical Twilight 6:06 AM CST 6:17 PM CST
Astronomical Twilight 5:37 AM CST 6:46 PM CST
Moon 4:42 AM CST (1/9) 3:23 PM CST (1/9)
Length of Visible Light 11h 10m
Length of Day
10h 18m
Waning Crescent, 6% of the Moon is Illuminated
Jan 9
Waning Crescent
Jan 11
New
Jan 18
First Quarter
Jan 26
Full
Feb 3
Last Quarter

Hourly Weather History & Observations

Time (CST) Temp. Dew Point Humidity Pressure Visibility Wind Dir Wind Speed Gust Speed Precip Events Conditions
12:02 AM 60.8 °F 60.8 °F 100% 30.12 in 2.5 mi Variable 4.6 mph - 0.13 in Rain Heavy Rain
12:11 AM 60.8 °F 60.8 °F 100% 30.15 in 5.0 mi SW 8.1 mph - 0.16 in Rain Rain
12:19 AM 60.8 °F 60.8 °F 100% 30.15 in 1.8 mi West 13.8 mph 17.3 mph 0.23 in Rain Heavy Rain
12:30 AM 60.8 °F 60.8 °F 100% 30.14 in 1.0 mi West 8.1 mph - 0.62 in Rain Heavy Rain
12:38 AM 60.8 °F 60.8 °F 100% 30.14 in 3.0 mi NNW 3.5 mph - 0.68 in Rain Rain
12:50 AM 60.8 °F 60.8 °F 100% 30.13 in 5.0 mi ENE 3.5 mph - 0.72 in Rain Rain
12:53 AM 61.0 °F 60.1 °F 97% 30.13 in 6.0 mi ENE 4.6 mph - 0.73 in Rain Rain
1:53 AM 61.0 °F 60.1 °F 97% 30.11 in 10.0 mi East 6.9 mph - 0.09 in Rain Light Rain
2:53 AM 61.0 °F 60.1 °F 97% 30.09 in 4.0 mi East 11.5 mph - 0.23 in Rain Rain
3:53 AM 60.1 °F 60.1 °F 100% 30.09 in 7.0 mi ESE 9.2 mph - 0.20 in Rain Rain
4:53 AM 62.1 °F 61.0 °F 96% 30.09 in 4.0 mi ESE 11.5 mph - 0.25 in Rain Heavy Rain
5:53 AM 62.1 °F 61.0 °F 96% 30.11 in 10.0 mi East 10.4 mph - 0.10 in Rain Light Rain
6:29 AM 62.6 °F 62.6 °F 100% 30.11 in 6.0 mi East 11.5 mph - 0.07 in Rain Light Rain
6:42 AM 62.6 °F 62.6 °F 100% 30.11 in 8.0 mi ESE 13.8 mph - 0.09 in Rain Light Rain
6:53 AM 63.0 °F 62.1 °F 97% 30.11 in 10.0 mi ESE 15.0 mph - 0.09 in Rain Light Rain
7:05 AM 62.6 °F 62.6 °F 100% 30.11 in 10.0 mi East 13.8 mph - 0.00 in Rain Light Rain
7:30 AM 62.6 °F 60.8 °F 94% 30.12 in 5.0 mi ESE 16.1 mph - 0.03 in Rain Rain
7:51 AM 62.6 °F 60.8 °F 94% 30.12 in 10.0 mi East 13.8 mph - 0.06 in Rain Light Rain
7:53 AM 62.1 °F 61.0 °F 96% 30.12 in 10.0 mi East 12.7 mph - 0.06 in Rain Light Rain
8:53 AM 63.0 °F 62.1 °F 97% 30.14 in 10.0 mi ESE 9.2 mph - 0.05 in   Overcast
9:37 AM 64.4 °F 62.6 °F 94% 30.17 in 10.0 mi ESE 10.4 mph - 0.01 in   Overcast
9:53 AM 64.4 °F 62.6 °F 94% 30.17 in 10.0 mi ESE 9.2 mph - N/A Rain Light Rain
10:24 AM 62.6 °F 62.6 °F 100% 30.18 in 1.8 mi ESE 10.4 mph - 0.05 in Rain Heavy Rain
10:38 AM 62.6 °F 62.6 °F 100% 30.18 in 0.8 mi East 8.1 mph - 0.41 in Rain Heavy Rain
10:50 AM 62.6 °F 62.6 °F 100% 30.17 in 1.2 mi East 10.4 mph - 0.55 in Rain Heavy Rain
10:53 AM 63.0 °F 63.0 °F 100% 30.17 in 1.8 mi East 11.5 mph - 0.57 in Rain Rain
10:56 AM 62.6 °F 62.6 °F 100% 30.16 in 3.0 mi East 10.4 mph - 0.00 in Rain Light Rain
11:37 AM 62.6 °F 62.6 °F 100% 30.14 in 2.0 mi East 15.0 mph 21.9 mph 0.00 in Rain Light Rain
11:53 AM 63.0 °F 62.1 °F 97% 30.14 in 2.0 mi East 13.8 mph - 0.00 in Rain Light Rain
12:22 PM 62.6 °F 62.6 °F 100% 30.12 in 1.0 mi East 13.8 mph - 0.01 in Rain Light Rain
12:53 PM 64.0 °F 63.0 °F 96% 30.10 in 1.0 mi East 9.2 mph - 0.01 in   Overcast
1:53 PM 64.0 °F 64.0 °F 100% 30.10 in 1.0 mi East 10.4 mph 19.6 mph N/A   Overcast
2:00 PM 64.4 °F 64.4 °F 100% 30.09 in 3.0 mi East 9.2 mph - N/A   Overcast
2:10 PM 64.4 °F 64.4 °F 100% 30.09 in 1.5 mi East 9.2 mph - N/A   Overcast
2:53 PM 64.9 °F 64.0 °F 97% 30.09 in 1.0 mi East 9.2 mph - N/A   Overcast
3:29 PM 64.4 °F 64.4 °F 100% 30.09 in 2.0 mi East 12.7 mph - N/A   Overcast
3:53 PM 64.9 °F 64.9 °F 100% 30.09 in 1.5 mi East 9.2 mph - N/A   Overcast
4:53 PM 64.9 °F 64.9 °F 100% 30.08 in 1.5 mi East 15.0 mph - N/A   Overcast
5:53 PM 66.0 °F 64.9 °F 96% 30.11 in 1.5 mi ESE 13.8 mph 21.9 mph N/A   Overcast
6:53 PM 66.0 °F 64.9 °F 96% 30.13 in 2.0 mi ESE 10.4 mph - N/A   Overcast
7:00 PM 66.2 °F 64.4 °F 94% 30.13 in 6.0 mi ESE 15.0 mph 23.0 mph N/A   Overcast
7:53 PM 64.9 °F 64.9 °F 100% 30.14 in 5.0 mi ESE 13.8 mph - N/A   Overcast
8:53 PM 64.9 °F 64.9 °F 100% 30.14 in 5.0 mi ESE 11.5 mph - N/A   Overcast
9:53 PM 64.9 °F 64.9 °F 100% 30.13 in 6.0 mi East 12.7 mph - N/A   Overcast
10:53 PM 64.9 °F 64.9 °F 100% 30.14 in 5.0 mi ESE 13.8 mph - N/A   Overcast
11:53 PM 66.0 °F 66.0 °F 100% 30.12 in 3.0 mi ESE 15.0 mph 21.9 mph N/A   Overcast